Hourly Data Report for July 21, 2004

TORONTO CITY
ONTARIO

43°40'00.000" N
79°24'00.000" W
112.50 m
6158355
71508
XTO

Download Data

Hourly Data (July 2004)
Hourly Data Report for July 21, 2004
TIME
LST
Temp Definition
°C
Dew Point Definition
°C
Rel Hum Definition
%
Precip. Amount Definition
mm

Wind Dir Definition
10's deg

Wind Spd Definition
km/h
Visibility Definition
km
Stn Press Definition
kPa
Hmdx Definition


Wind Chill Definition


Weather Definition


00:00 19.7 19.5 99   LegendMM LegendMM LegendMM 99.98     LegendNANA
01:00 19.5 19.4 99   LegendMM LegendMM LegendMM 99.96     LegendNANA
02:00 19.3 19.2 99   LegendMM LegendMM LegendMM 99.95     LegendNANA
03:00 19.1 19.0 99   LegendMM LegendMM LegendMM 99.93     LegendNANA
04:00 19.1 19.0 99   LegendMM LegendMM LegendMM 99.95     LegendNANA
05:00 19.2 19.2 100   LegendMM LegendMM LegendMM 99.99     LegendNANA
06:00 19.6 19.6 100   LegendMM LegendMM LegendMM 100.02     LegendNANA
07:00 20.8 20.8 100   LegendMM LegendMM LegendMM 100.03 29   LegendNANA
08:00 22.2 20.8 92   LegendMM LegendMM LegendMM 99.98 30   LegendNANA
09:00 23.2 20.6 85   LegendMM LegendMM LegendMM 99.97 31   LegendNANA
10:00 24.7 21.1 80   LegendMM LegendMM LegendMM 100.01 33   LegendNANA
11:00 25.9 21.2 75   LegendMM LegendMM LegendMM 100.01 34   LegendNANA
12:00 28.1 23.0 74   LegendMM LegendMM LegendMM 99.99 38   LegendNANA
13:00 28.4 22.2 69   LegendMM LegendMM LegendMM 99.89 38   LegendNANA
14:00 28.9 23.2 71   LegendMM LegendMM LegendMM 99.86 39   LegendNANA
15:00 29.6 21.3 61   LegendMM LegendMM LegendMM 99.81 38   LegendNANA
16:00 29.0 21.4 64   LegendMM LegendMM LegendMM 99.75 38   LegendNANA
17:00 27.2 22.0 73   LegendMM LegendMM LegendMM 99.72 37   LegendNANA
18:00 27.3 22.3 74   LegendMM LegendMM LegendMM 99.68 37   LegendNANA
19:00 26.1 22.2 79   LegendMM LegendMM LegendMM 99.65 36   LegendNANA
20:00 25.2 21.9 82   LegendMM LegendMM LegendMM 99.62 34   LegendNANA
21:00 24.7 20.7 78   LegendMM LegendMM LegendMM 99.67 33   LegendNANA
22:00 23.6 21.2 86   LegendMM LegendMM LegendMM 99.69 32   LegendNANA
23:00 23.5 21.0 86   LegendMM LegendMM LegendMM 99.67 32   LegendNANA

Notes on Data Quality.

Legend

  • E = Estimated
  • M = Missing
  • NA = Not Available*
  • [empty] = Indicates an unobserved value
Date modified: